FW9782 Weather Reports


time (UTC)temp
C
wind
direction
speed
KPH
gust
KPH
rain 1hr
cm
rain 24hr
cm
rain mn
cm
humidity
%
barometer
mb
20260510171241 15 183 4.8 4.8 0.00 0.00 0.00 79 1011.7
20260510170739 15 58 0.0 1.6 0.00 0.00 0.00 79 1011.9
20260510170234 14 350 1.6 1.6 0.00 0.00 0.00 82 1011.9
20260510165730 14 285 0.0 1.6 0.00 0.00 0.00 83 1011.8
20260510165226 13 140 3.2 4.8 0.00 0.00 0.00 84 1011.8
20260510164724 13 200 3.2 3.2 0.00 0.00 0.00 85 1012.0
20260510164221 13 145 3.2 4.8 0.00 0.00 0.00 86 1011.7
20260510163716 13 305 0.0 0.0 0.00 0.00 0.00 84 1011.8
20260510163212 13 335 0.0 0.0 0.00 0.00 0.00 87 1011.9
20260510162711 13 167 3.2 3.2 0.00 0.00 0.00 85 1011.9
20260510162209 13 245 1.6 1.6 0.00 0.00 0.00 85 1012.0
20260510161705 13 183 1.6 1.6 0.00 0.00 0.00 87 1011.6
20260510161201 13 341 0.0 0.0 0.00 0.00 0.00 86 1011.8
20260510160658 13 319 0.0 1.6 0.00 0.00 0.00 87 1011.8
20260510160154 13 316 1.6 3.2 0.00 0.00 0.00 87 1011.8
20260510155650 13 299 0.0 1.6 0.00 0.00 0.00 87 1011.9
20260510155145 13 163 1.6 1.6 0.00 0.00 0.00 87 1011.7
20260510154641 13 55 0.0 1.6 0.00 0.00 0.00 87 1011.6
20260510154137 13 340 0.0 0.0 0.00 0.00 0.00 87 1011.7
20260510153638 13 326 0.0 0.0 0.00 0.00 0.00 88 1011.7
20260510153135 13 320 0.0 0.0 0.00 0.00 0.00 87 1011.7
20260510152631 13 26 0.0 0.0 0.00 0.00 0.00 87 1011.5
20260510152127 13 318 1.6 1.6 0.00 0.00 0.00 86 1011.7
20260510151624 13 148 3.2 3.2 0.00 0.00 0.00 86 1011.4
20260510151122 13 19 0.0 1.6 0.00 0.00 0.00 84 1011.4
20260510150622 13 320 0.0 0.0 0.00 0.00 0.00 84 1011.3
20260510150118 13 5 0.0 1.6 0.00 0.00 0.00 86 1011.2
20260510145615 13 335 0.0 0.0 0.00 0.00 0.00 85 1011.0
20260510145111 13 302 0.0 0.0 0.00 0.00 0.00 85 1011.0
20260510144607 14 135 3.2 3.2 0.00 0.00 0.00 85 1011.0
20260510144104 14 298 1.6 1.6 0.00 0.00 0.00 86 1011.0
20260510143559 14 196 1.6 3.2 0.00 0.00 0.00 86 1010.7
20260510143056 14 198 1.6 3.2 0.00 0.00 0.00 86 1010.8
20260510142552 14 237 1.6 1.6 0.00 0.00 0.00 87 1010.9
20260510142049 14 329 1.6 1.6 0.00 0.00 0.00 87 1010.8
20260510141546 14 6 3.2 3.2 0.00 0.00 0.00 87 1010.7
20260510141044 14 117 3.2 4.8 0.00 0.00 0.00 86 1010.9
20260510140540 14 307 1.6 3.2 0.00 0.00 0.00 87 1010.8
20260510140039 15 182 4.8 4.8 0.00 0.00 0.00 87 1010.6
20260510135535 15 341 1.6 1.6 0.00 0.00 0.00 85 1010.6
20260510135032 15 292 1.6 1.6 0.00 0.00 0.00 84 1010.3
20260510134529 15 292 1.6 1.6 0.00 0.00 0.00 83 1010.3
20260510134026 15 119 1.6 1.6 0.00 0.00 0.00 86 1010.3
20260510133521 15 2 0.0 0.0 0.00 0.00 0.00 85 1010.2
20260510133018 15 354 0.0 0.0 0.00 0.00 0.00 85 1010.0
20260510132515 15 173 3.2 3.2 0.00 0.00 0.00 84 1010.2
20260510132012 14 319 1.6 1.6 0.00 0.00 0.00 85 1010.4
20260510131509 14 134 0.0 1.6 0.00 0.00 0.00 84 1010.2
20260510131006 14 297 0.0 1.6 0.00 0.00 0.00 84 1010.1
20260510130502 14 104 0.0 1.6 0.00 0.00 0.00 88 1010.1
20260510130000 14 217 1.6 1.6 0.00 0.00 0.00 87 1010.2
20260510125456 13 204 1.6 1.6 0.00 0.00 0.00 88 1010.3
20260510124953 13 302 1.6 1.6 0.00 0.00 0.00 87 1010.1
20260510124449 13 113 1.6 1.6 0.00 0.00 0.00 88 1010.2
20260510123946 13 323 0.0 0.0 0.00 0.00 0.00 90 1010.3
20260510123442 13 283 1.6 1.6 0.00 0.00 0.00 89 1010.2
20260510122938 13 242 0.0 1.6 0.00 0.00 0.00 92 1010.2
20260510122433 12 329 0.0 1.6 0.00 0.00 0.00 91 1010.3
20260510121929 12 230 1.6 1.6 0.00 0.00 0.00 92 1010.1
20260510121427 12 144 4.8 4.8 0.00 0.00 0.00 92 1010.1
20260510120925 12 348 0.0 0.0 0.00 0.00 0.00 92 1010.1
20260510120422 12 298 1.6 1.6 0.00 0.00 0.00 93 1010.1
20260510115917 12 324 1.6 1.6 0.00 0.00 0.00 93 1009.9
20260510115414 12 336 0.0 0.0 0.00 0.00 0.00 92 1010.2
20260510114910 12 192 1.6 3.2 0.00 0.00 0.00 93 1010.0
20260510114408 12 329 0.0 0.0 0.00 0.00 0.00 93 1010.3
20260510113903 11 306 1.6 1.6 0.00 0.00 0.00 94 1010.3
20260510113359 11 207 1.6 3.2 0.00 0.00 0.00 93 1010.2
20260510112856 11 288 0.0 1.6 0.00 0.00 0.00 93 1010.2
20260510112353 11 343 0.0 1.6 0.00 0.00 0.00 94 1010.0
20260510111849 11 280 1.6 3.2 0.00 0.00 0.00 95 1009.8
20260510111345 11 329 0.0 0.0 0.00 0.00 0.00 99 1009.7
20260510110840 10 302 0.0 0.0 0.00 0.00 0.00 99 1009.9
20260510110338 10 338 0.0 0.0 0.00 0.00 0.00 99 1009.8
20260510105834 10 338 0.0 0.0 0.00 0.00 0.00 99 1009.7
20260510105333 10 341 0.0 0.0 0.00 0.00 0.00 99 1009.6
20260510104830 10 331 0.0 0.0 0.00 0.00 0.00 99 1009.4
20260510104327 10 324 1.6 1.6 0.00 0.00 0.00 99 1009.6
20260510103823 10 346 0.0 0.0 0.00 0.00 0.00 99 1009.5
20260510103320 10 337 0.0 0.0 0.00 0.00 0.00 99 1009.5
20260510102815 10 334 0.0 0.0 0.00 0.00 0.00 99 1009.5
20260510102312 10 305 1.6 1.6 0.00 0.00 0.00 99 1009.3
20260510101809 10 357 1.6 3.2 0.00 0.00 0.00 99 1009.1
20260510101307 10 7 1.6 1.6 0.00 0.00 0.00 99 1009.2
20260510100802 10 336 1.6 1.6 0.00 0.00 0.00 99 1009.1
20260510100301 10 353 1.6 3.2 0.00 0.00 0.00 99 1009.2
20260510095756 10 335 1.6 1.6 0.00 0.00 0.00 99 1008.7
20260510095251 10 4 0.0 0.0 0.00 0.00 0.00 99 1008.7
20260510094751 10 357 0.0 1.6 0.00 0.00 0.00 99 1008.7
20260510094246 10 351 1.6 1.6 0.00 0.00 0.00 99 1008.6
20260510093742 10 342 1.6 3.2 0.00 0.00 0.00 99 1008.4
20260510093239 10 312 1.6 1.6 0.00 0.00 0.00 99 1008.4
20260510092736 10 331 0.0 0.0 0.00 0.00 0.00 99 1008.3
20260510092231 10 311 1.6 1.6 0.00 0.00 0.00 99 1008.2
20260510091727 10 332 1.6 1.6 0.00 0.00 0.00 99 1008.2
20260510091224 10 329 0.0 0.0 0.00 0.00 0.00 99 1008.0
20260510090721 10 341 0.0 0.0 0.00 0.00 0.00 99 1007.9
20260510090218 10 352 0.0 0.0 0.00 0.00 0.00 99 1008.5
20260510085713 10 353 0.0 0.0 0.00 0.00 0.00 99 1008.2
20260510085208 10 350 1.6 1.6 0.00 0.00 0.00 99 1008.5
20260510084704 10 347 0.0 1.6 0.00 0.00 0.00 99 1008.6
20260510084201 10 341 1.6 1.6 0.00 0.00 0.00 99 1008.4
20260510083658 10 353 1.6 1.6 0.00 0.00 0.00 99 1008.6
20260510083155 10 330 1.6 1.6 0.00 0.00 0.00 99 1008.6
20260510082651 10 357 0.0 1.6 0.00 0.00 0.00 99 1008.6
20260510082146 10 342 1.6 1.6 0.00 0.00 0.00 99 1008.5
20260510081642 10 333 0.0 0.0 0.00 0.00 0.00 99 1008.3
20260510081138 10 319 0.0 0.0 0.00 0.00 0.00 99 1008.0
20260510080637 10 11 0.0 0.0 0.00 0.00 0.00 99 1007.5
20260510080134 10 331 0.0 0.0 0.00 0.00 0.00 99 1007.9
20260510075631 10 2 0.0 1.6 0.00 0.00 0.00 99 1008.0
20260510075128 10 3 0.0 0.0 0.00 0.00 0.00 99 1008.4
20260510074625 10 4 0.0 0.0 0.00 0.00 0.00 99 1008.5
20260510074121 10 9 0.0 0.0 0.00 0.00 0.00 99 1008.8
20260510073617 10 13 0.0 0.0 0.00 0.00 0.00 99 1008.8
20260510073114 10 346 0.0 0.0 0.00 0.00 0.00 99 1009.2
20260510072610 10 345 0.0 0.0 0.00 0.00 0.00 99 1009.2
20260510072106 10 358 0.0 0.0 0.00 0.00 0.00 99 1009.3
20260510071557 10 358 0.0 0.0 0.00 0.00 0.00 99 1009.3
20260510071055 10 344 0.0 0.0 0.00 0.00 0.00 99 1009.4
20260510070552 10 335 0.0 0.0 0.00 0.00 0.00 99 1009.4
20260510070049 10 351 0.0 0.0 0.00 0.00 0.00 99 1009.0
20260510065545 10 85 1.6 1.6 0.00 0.00 0.00 99 1009.0
20260510065041 10 329 1.6 1.6 0.00 0.00 0.00 99 1009.1
20260510064538 10 330 0.0 1.6 0.00 0.00 0.00 99 1009.0
20260510064035 10 339 0.0 0.0 0.00 0.00 0.00 99 1009.0
20260510063531 10 336 0.0 0.0 0.00 0.00 0.00 99 1008.8
20260510063029 10 342 1.6 1.6 0.00 0.00 0.00 99 1009.0
20260510062525 10 325 1.6 1.6 0.00 0.00 0.00 99 1008.7
20260510062019 10 347 1.6 1.6 0.00 0.00 0.00 99 1008.8
20260510061516 10 347 1.6 1.6 0.00 0.00 0.00 98 1008.6
20260510061013 10 11 0.0 0.0 0.00 0.00 0.00 97 1008.7
20260510060510 11 339 0.0 0.0 0.00 0.00 0.00 95 1008.7
20260510060006 11 316 0.0 0.0 0.00 0.00 0.00 95 1008.8
20260510055502 11 325 0.0 0.0 0.00 0.00 0.00 95 1008.7
20260510055000 11 312 0.0 0.0 0.00 0.00 0.00 95 1009.0
20260510054455 11 310 0.0 0.0 0.00 0.00 0.00 95 1008.6
20260510053951 11 336 1.6 1.6 0.00 0.00 0.00 95 1008.4
20260510053446 11 323 0.0 0.0 0.00 0.00 0.00 94 1008.6
20260510052942 11 312 0.0 1.6 0.00 0.00 0.00 93 1008.5
20260510052438 11 289 1.6 3.2 0.00 0.00 0.00 94 1008.6
20260510051935 11 328 0.0 0.0 0.00 0.00 0.00 94 1008.6
20260510051431 11 320 1.6 1.6 0.00 0.00 0.00 96 1008.7
20260510050927 10 331 0.0 0.0 0.00 0.00 0.00 97 1008.5
20260510050424 10 6 0.0 1.6 0.00 0.00 0.00 97 1008.4
20260510045922 10 338 1.6 1.6 0.00 0.00 0.00 98 1008.7
20260510045419 10 341 1.6 1.6 0.00 0.00 0.00 98 1008.7
20260510044915 10 358 0.0 0.0 0.00 0.00 0.00 99 1008.6
20260510044412 10 336 0.0 0.0 0.00 0.00 0.00 98 1008.8
20260510043909 10 350 1.6 1.6 0.00 0.00 0.00 98 1008.7
20260510043405 10 335 0.0 0.0 0.00 0.00 0.00 98 1008.6
20260510042903 10 330 1.6 1.6 0.00 0.00 0.00 98 1008.7
20260510042359 10 356 1.6 1.6 0.00 0.00 0.00 98 1008.5
20260510041855 11 346 1.6 1.6 0.00 0.00 0.00 96 1008.5
20260510041352 11 330 1.6 1.6 0.00 0.00 0.00 94 1008.6
20260510040850 11 305 1.6 1.6 0.00 0.00 0.00 93 1008.8
20260510040347 11 322 1.6 1.6 0.00 0.00 0.00 92 1008.8
20260510035842 11 320 0.0 0.0 0.00 0.64 0.64 91 1008.7
20260510035338 11 301 1.6 1.6 0.00 0.64 0.64 92 1008.5
20260510034833 11 321 1.6 1.6 0.00 0.64 0.64 93 1008.6
20260510034332 11 312 0.0 0.0 0.00 0.64 0.64 94 1008.5
20260510033828 11 341 0.0 0.0 0.00 0.64 0.64 92 1008.5
20260510033325 11 310 1.6 1.6 0.00 0.64 0.64 93 1008.5
20260510032821 11 300 1.6 1.6 0.00 0.64 0.64 92 1008.5
20260510032318 11 171 1.6 4.8 0.00 0.64 0.64 92 1008.7
20260510031813 11 229 3.2 3.2 0.00 0.64 0.64 93 1008.7
20260510031309 11 3 0.0 0.0 0.00 0.64 0.64 94 1008.6
20260510030803 11 350 0.0 0.0 0.00 0.64 0.64 92 1008.7
20260510030300 11 289 0.0 1.6 0.00 0.64 0.64 91 1008.7
20260510025757 11 322 0.0 0.0 0.00 0.64 0.64 91 1008.9
20260510025255 11 243 1.6 1.6 0.00 0.64 0.64 92 1008.6
20260510024751 11 310 0.0 0.0 0.00 0.64 0.64 93 1008.7
20260510024248 11 162 1.6 3.2 0.00 0.64 0.64 92 1008.7
20260510023744 11 160 1.6 1.6 0.00 0.64 0.64 93 1008.6
20260510023241 11 286 1.6 1.6 0.00 0.64 0.64 95 1008.8
20260510022738 11 256 1.6 1.6 0.00 0.64 0.64 94 1008.6
20260510022238 11 299 1.6 1.6 0.00 0.64 0.64 94 1008.8
20260510021732 11 337 0.0 0.0 0.00 0.64 0.64 93 1008.5
20260510021230 11 316 0.0 1.6 0.00 0.64 0.64 92 1008.8
20260510020731 11 311 1.6 3.2 0.00 0.64 0.64 92 1008.9
20260510020226 11 351 0.0 0.0 0.00 0.64 0.64 94 1008.6
20260510015722 11 249 1.6 1.6 0.00 0.64 0.64 94 1008.4
20260510015218 11 142 1.6 1.6 0.00 0.64 0.64 96 1008.5
20260510014714 10 351 0.0 0.0 0.00 0.64 0.64 99 1008.5
20260510014212 10 346 0.0 0.0 0.00 0.64 0.64 99 1008.7
20260510013712 10 227 1.6 1.6 0.00 0.64 0.64 99 1008.9
20260510013208 10 258 3.2 3.2 0.00 0.64 0.64 99 1009.0
20260510012702 10 358 0.0 0.0 0.00 0.64 0.64 99 1008.7
20260510012157 10 358 3.2 3.2 0.00 0.64 0.64 99 1008.7
20260510011652 10 348 1.6 1.6 0.00 0.64 0.64 99 1008.7
20260510011148 10 6 1.6 1.6 0.00 0.64 0.64 99 1008.8
20260510010644 10 358 0.0 1.6 0.00 0.64 0.64 99 1008.6
20260510010142 10 357 0.0 0.0 0.00 0.64 0.64 99 1008.8
20260510005637 10 358 0.0 0.0 0.00 0.64 0.64 99 1008.5
20260510005135 10 358 1.6 1.6 0.00 0.64 0.64 99 1008.8
20260510004633 10 353 1.6 1.6 0.00 0.64 0.64 99 1008.8
20260510004131 10 341 1.6 1.6 0.00 0.64 0.64 99 1008.7
20260510003628 10 355 1.6 1.6 0.00 0.64 0.64 99 1008.7
20260510003123 10 355 1.6 1.6 0.00 0.64 0.64 99 1008.3
20260510002618 10 349 1.6 1.6 0.00 0.64 0.64 99 1008.4
20260510002115 10 359 0.0 0.0 0.00 0.64 0.64 99 1008.0
20260510001612 10 359 1.6 1.6 0.00 0.64 0.64 99 1008.2
20260510001111 10 349 1.6 1.6 0.00 0.64 0.64 99 1008.0
20260510000611 10 338 1.6 1.6 0.00 0.64 0.64 99 1008.2
20260510000108 10 1 1.6 1.6 0.00 0.64 0.64 99 1007.8
20260509235604 10 3 1.6 1.6 0.00 0.64 0.64 99 1008.0
20260509235102 10 326 1.6 1.6 0.00 0.64 0.64 99 1008.2
20260509234557 10 351 1.6 1.6 0.00 0.64 0.64 99 1008.4
20260509234055 10 343 0.0 0.0 0.00 0.64 0.64 99 1007.9
20260509233553 10 6 1.6 1.6 0.00 0.64 0.64 99 1008.0
20260509233050 11 354 0.0 0.0 0.00 0.64 0.64 99 1007.6
20260509232546 11 351 1.6 1.6 0.00 0.64 0.64 99 1007.6
20260509232043 11 305 1.6 1.6 0.00 0.64 0.64 99 1007.8
20260509231539 11 340 1.6 1.6 0.00 0.64 0.64 99 1007.4
20260509231037 11 354 1.6 1.6 0.00 0.64 0.64 99 1007.5
20260509230534 11 352 1.6 1.6 0.00 0.64 0.64 95 1007.5
20260509230031 11 306 0.0 1.6 0.00 0.64 0.64 95 1007.8
20260509225526 11 327 0.0 0.0 0.00 0.64 0.64 95 1007.4
20260509225022 11 318 0.0 0.0 0.00 0.64 0.64 94 1007.6
20260509224518 11 335 0.0 1.6 0.00 0.64 0.64 96 1007.5
20260509224015 11 325 0.0 0.0 0.00 0.64 0.64 97 1007.5
20260509223512 11 37 0.0 0.0 0.00 0.64 0.64 97 1007.7
20260509223010 11 333 1.6 3.2 0.00 0.64 0.64 99 1007.6
20260509222505 11 4 0.0 0.0 0.00 0.64 0.64 98 1007.7
20260509222001 11 343 0.0 1.6 0.00 0.64 0.64 98 1007.7
20260509221457 11 347 0.0 0.0 0.00 0.64 0.64 98 1008.0
20260509220953 11 313 0.0 0.0 0.00 0.64 0.64 97 1008.0
20260509220449 11 313 0.0 0.0 0.00 0.64 0.64 97 1007.9
20260509215945 11 291 1.6 1.6 0.00 0.64 0.64 97 1008.0
20260509215441 11 319 0.0 0.0 0.00 0.64 0.64 97 1008.2
20260509214939 11 337 0.0 0.0 0.00 0.64 0.64 97 1008.2
20260509214436 11 325 0.0 0.0 0.00 0.64 0.64 98 1008.4
20260509213932 10 324 0.0 0.0 0.00 0.64 0.64 99 1008.2
20260509213428 10 336 0.0 0.0 0.00 0.64 0.64 99 1008.2
20260509212926 10 345 0.0 0.0 0.00 0.64 0.64 99 1008.4
20260509212423 10 308 1.6 1.6 0.00 0.64 0.64 99 1008.4
20260509211919 10 346 1.6 1.6 0.00 0.64 0.64 99 1008.6
20260509211415 10 329 0.0 1.6 0.00 0.64 0.64 99 1008.6
20260509210911 10 345 0.0 0.0 0.00 0.64 0.64 98 1008.7
20260509210409 10 282 1.6 1.6 0.00 0.64 0.64 99 1008.7
20260509205904 10 328 0.0 0.0 0.00 0.64 0.64 99 1008.8
20260509205404 10 335 0.0 0.0 0.00 0.64 0.64 99 1008.9
20260509204900 10 319 0.0 0.0 0.00 0.64 0.64 99 1008.9
20260509204356 10 320 0.0 0.0 0.00 0.64 0.64 99 1008.8
20260509203853 10 349 0.0 0.0 0.00 0.64 0.64 99 1008.8
20260509203349 10 295 1.6 1.6 0.00 0.64 0.64 99 1009.0
20260509202847 10 347 0.0 0.0 0.00 0.64 0.64 99 1009.1
20260509202342 10 335 0.0 0.0 0.00 0.64 0.64 99 1009.2
20260509201837 10 336 0.0 0.0 0.00 0.64 0.64 99 1009.0
20260509201333 10 333 0.0 0.0 0.00 0.64 0.64 99 1009.0
20260509200830 10 322 0.0 0.0 0.00 0.64 0.64 99 1009.2
20260509200326 10 326 0.0 1.6 0.00 0.64 0.64 99 1009.2
20260509195823 10 355 0.0 0.0 0.00 0.64 0.64 99 1009.3
20260509195322 10 325 0.0 0.0 0.00 0.64 0.64 99 1009.4
20260509194822 10 348 0.0 0.0 0.00 0.64 0.64 99 1009.3
20260509194319 10 145 0.0 1.6 0.00 0.64 0.64 98 1009.4
20260509193815 10 336 1.6 1.6 0.00 0.64 0.64 97 1009.5
20260509193315 10 268 3.2 3.2 0.00 0.64 0.64 97 1009.3
20260509192812 10 272 3.2 3.2 0.00 0.64 0.64 98 1009.5
20260509192308 10 264 3.2 3.2 0.00 0.64 0.64 98 1009.3
20260509191803 10 129 3.2 3.2 0.00 0.64 0.64 98 1009.5
20260509191259 10 321 0.0 0.0 0.00 0.64 0.64 98 1009.4
20260509190755 10 88 1.6 1.6 0.00 0.64 0.64 98 1009.3
20260509190252 10 184 1.6 3.2 0.00 0.64 0.64 99 1009.6
20260509185750 10 321 0.0 0.0 0.00 0.64 0.64 99 1009.4
20260509185246 10 303 4.8 4.8 0.18 0.64 0.64 98 1009.7
20260509184743 10 284 1.6 1.6 0.18 0.64 0.64 98 1009.5
20260509184241 10 259 0.0 1.6 0.13 0.61 0.61 98 1009.6
20260509183737 10 279 1.6 3.2 0.30 0.61 0.61 98 1009.5
20260509183232 10 106 1.6 1.6 0.18 0.58 0.58 98 1009.6
20260509182728 10 308 0.0 1.6 0.18 0.58 0.58 98 1009.7
20260509182226 10 321 0.0 0.0 0.00 0.56 0.56 98 1009.7
20260509181723 10 335 0.0 1.6 0.13 0.56 0.56 99 1009.9
20260509181220 10 333 0.0 0.0 0.13 0.56 0.56 99 1009.7
20260509180717 10 149 1.6 1.6 0.00 0.53 0.53 98 1009.5
20260509180213 9 319 0.0 1.6 0.00 0.53 0.53 98 1009.7
20260509175710 10 341 0.0 0.0 0.18 0.53 0.53 99 1009.9
20260509175206 10 315 1.6 1.6 0.18 0.53 0.53 98 1009.7
20260509174702 10 293 0.0 0.0 0.00 0.51 0.51 98 1009.5
20260509174157 10 321 1.6 1.6 0.00 0.51 0.51 96 1009.7
20260509173654 10 271 1.6 1.6 0.00 0.51 0.51 97 1009.8
20260509173149 10 33 1.6 1.6 0.00 0.51 0.51 98 1009.7
20260509172646 10 107 0.0 1.6 0.13 0.51 0.51 98 1009.6
20260509172142 9 262 0.0 0.0 0.13 0.51 0.51 97 1009.9
20260509171638 9 32 0.0 0.0 0.00 0.48 0.48 98 1009.9